Temp
57 58 58 59 60 60 60 60 61 61 61 61 60 60 59 59 59 58 58 58 58 57 58 61 64 64 65 65 66 66 67 67 68 67 67 67 67 67 67 68 68 68 68 69 69 69 69 70 69 68 68 68 68 68 68 68 68 68 68 67 66 66 65 65 65 64 64 63 62
58 58 59 60 60 60 60 61 60 60 60 61 61 61 60 59 59 58 58 58 58 58 59 62 64 65 65 66 66 67 67 68 68 67 67 67 67 67 68 68 68 68 69 69 69 69 69 69 69 68 68 68 68 68 68 67 68 67 67 66 65 65 65 65 64 64 63 62 61
58 58 59 60 60 60 60 60 60 60 60 60 61 60 60 59 59 59 58 58 58 58 59 61 64 65 66 66 67 68 68 68 68 67 67 67 67 68 68 68 68 69 69 69 69 69 69 69 69 68 67 66 67 67 67 67 67 66 65 65 64 64 64 63 62 62 61 61 60
58 59 59 60 60 61 61 60 60 60 60 60 61 61 60 60 59 59 59 58 58 58 59 61 65 66 67 67 68 68 68 68 68 67 67 67 68 68 68 68 68 69 69 69 69 69 69 69 68 67 66 65 66 65 65 65 66 65 64 63 63 62 62 61 60 60 59 59 58
58 59 60 60 61 62 62 62 62 61 61 61 61 60 60 60 59 59 59 58 58 58 60 63 65 67 67 68 68 68 68 68 67 67 67 67 68 68 68 69 69 69 69 69 69 69 69 68 66 65 65 65 64 64 64 65 64 63 62 61 61 61 60 59 59 59 58 57 56
59 60 60 61 62 62 62 63 63 62 61 61 61 60 60 59 59 59 58 58 59 60 62 64 66 67 68 68 68 68 68 67 67 67 67 68 68 68 68 69 69 69 69 68 68 68 67 67 65 64 64 64 64 64 64 64 63 61 60 60 60 59 59 58 58 57 56 55 54
59 60 60 61 62 62 62 63 63 62 61 61 61 60 59 59 59 59 59 59 60 61 63 65 67 67 67 68 68 67 67 67 67 68 68 68 68 68 68 68 68 68 68 68 68 67 67 66 64 63 63 63 62 62 62 62 61 60 59 58 58 58 57 56 55 55 54 54 53
60 60 61 61 61 62 62 62 62 61 60 60 60 59 59 59 59 59 59 60 61 62 65 66 67 67 67 68 68 67 67 67 67 68 68 68 68 68 68 68 68 68 68 67 67 67 66 65 63 62 61 61 61 61 61 61 60 59 58 57 56 55 54 53 53 53 53 54 53
60 60 61 61 61 61 62 62 61 60 60 59 60 59 59 59 59 60 60 60 62 64 65 66 67 67 68 68 68 68 68 68 68 68 67 67 68 68 68 67 67 67 67 67 67 66 65 63 62 61 61 60 60 59 59 58 58 57 56 55 54 53 52 53 53 54 54 54 53
60 60 60 60 61 61 61 61 60 60 60 59 59 59 59 59 59 60 60 61 63 64 64 66 67 68 68 68 68 67 68 68 68 68 67 67 67 67 67 67 66 66 66 66 66 65 64 62 62 61 61 60 59 58 57 56 56 55 54 53 52 52 52 53 54 54 54 53 52
60 60 60 60 60 60 60 60 59 59 59 58 58 58 59 59 59 59 60 61 61 63 64 67 67 68 68 67 67 68 68 68 68 68 67 67 67 66 66 66 66 65 65 65 64 64 63 62 61 60 59 59 58 57 56 55 54 53 52 52 52 52 53 53 54 54 53 52 51
60 60 60 60 60 60 59 59 58 58 58 58 58 58 58 58 59 59 60 60 60 62 65 67 67 68 68 67 68 68 68 68 68 67 67 67 66 66 65 65 65 64 64 64 63 63 62 61 60 59 58 58 57 56 55 54 53 53 52 53 53 53 53 53 53 53 52 51 50
59 59 59 59 59 59 58 58 58 58 58 58 58 58 58 58 59 59 59 59 60 63 65 67 67 68 68 68 68 68 67 67 67 67 67 66 66 65 65 64 64 63 63 63 63 63 62 61 59 58 57 57 56 56 55 55 54 54 54 53 53 53 53 52 52 52 51 51 50
59 59 59 58 58 58 58 57 57 57 57 57 57 57 58 58 58 58 59 59 62 64 66 67 68 68 68 68 68 67 67 67 67 67 67 66 65 65 64 63 63 63 63 63 63 62 61 60 59 58 57 57 56 56 56 56 56 55 55 54 53 53 52 52 52 51 51 50 50
58 58 58 58 58 58 57 57 57 57 57 57 57 57 57 57 58 58 59 61 64 66 67 68 68 68 68 68 68 68 67 68 67 67 66 65 64 64 63 63 62 62 62 62 62 61 60 59 59 58 58 57 56 56 56 57 57 56 56 55 54 53 52 52 51 51 50 50 49
58 58 58 58 57 57 57 57 57 57 57 57 57 57 57 57 58 59 60 63 65 67 67 67 67 67 67 67 68 68 68 68 67 66 65 64 64 63 63 62 62 62 62 62 61 60 60 59 59 59 58 57 57 57 57 57 57 56 56 55 54 53 53 52 51 50 50 50 49
58 57 57 57 57 57 57 57 57 57 57 57 57 57 57 57 58 60 62 64 66 66 67 67 67 67 67 66 67 67 67 67 66 65 64 64 63 63 62 62 61 61 61 61 61 60 59 59 59 59 58 58 58 58 58 57 57 56 55 55 54 53 52 51 51 50 50 50 49
57 57 57 57 57 57 57 57 57 57 57 57 57 57 57 58 59 61 63 65 66 66 66 66 66 66 66 66 66 66 66 65 65 64 64 64 63 63 62 61 61 61 61 61 60 59 58 58 59 59 59 58 58 58 57 57 56 55 54 53 52 51 51 50 50 50 50 49 48
57 57 57 57 57 57 57 57 57 57 57 57 57 57 58 59 61 63 65 66 66 66 65 65 65 65 65 65 66 65 65 65 64 64 64 64 63 62 62 61 61 61 60 60 59 58 58 58 59 59 59 58 57 57 57 56 55 54 53 52 50 49 49 49 49 49 49 49 48
57 57 57 57 57 57 57 57 57 57 57 57 57 57 58 60 63 65 65 65 65 65 65 64 64 64 64 64 64 64 64 64 64 64 64 63 62 62 61 61 60 59 59 59 59 58 58 59 59 59 58 57 57 56 55 54 53 52 51 50 49 48 48 48 48 48 49 49 48
57 57 57 57 57 57 57 57 57 57 57 57 57 58 59 62 64 65 65 64 65 64 64 63 63 63 63 63 63 63 63 64 64 64 63 63 62 61 61 61 59 59 59 59 59 59 59 59 59 58 57 56 55 54 53 52 51 51 50 50 49 48 47 47 47 47 47 47 47
57 57 57 58 57 57 57 57 58 58 58 58 58 59 61 63 64 64 64 64 64 63 63 63 63 63 63 63 63 63 63 63 63 63 63 62 61 61 61 60 59 58 57 58 58 58 58 58 58 57 56 55 54 53 52 52 51 50 50 49 49 47 47 47 46 46 46 46 46
57 57 57 57 57 57 57 57 58 58 58 58 59 60 61 63 63 63 63 63 63 63 62 62 62 62 63 63 63 63 63 63 62 62 62 61 61 60 60 59 58 56 56 57 57 56 56 56 55 54 53 53 52 53 53 52 51 50 49 48 48 47 46 46 45 45 45 45 44
57 57 57 57 57 57 57 57 58 58 58 58 59 60 62 62 62 62 62 62 62 62 62 62 62 62 63 63 63 62 62 61 61 60 60 60 59 59 59 58 57 56 56 56 56 55 53 53 52 51 52 53 53 53 52 51 50 48 48 48 47 46 45 45 45 45 44 44 43
57 57 57 57 57 58 58 58 58 58 58 59 60 61 62 62 62 62 62 62 62 62 62 62 62 62 63 62 62 62 61 61 60 59 58 58 58 58 58 58 57 56 55 56 54 53 52 52 52 52 53 54 53 52 51 50 49 49 48 47 46 45 44 44 43 43 44 43 44
57 57 57 58 58 58 58 58 58 58 58 59 61 61 62 62 62 62 62 61 61 62 62 62 61 61 61 62 61 61 61 60 59 58 58 57 57 57 57 57 57 55 54 53 52 52 52 52 52 53 54 54 53 52 50 49 48 48 47 46 45 44 43 42 43 43 44 44 45
57 57 58 58 58 58 58 58 58 58 59 60 61 61 61 62 62 61 61 61 61 61 61 61 61 60 60 61 60 60 59 59 59 58 57 57 57 57 57 56 56 54 53 52 51 51 51 52 52 53 53 53 52 50 48 48 47 46 46 45 44 43 43 43 43 44 44 45 45
57 57 58 58 58 58 58 58 58 59 60 61 61 61 61 61 61 61 60 60 60 60 60 59 59 59 59 59 59 59 59 58 58 58 57 57 56 56 56 55 55 53 52 51 51 51 52 52 52 52 52 51 50 48 47 47 46 46 46 45 45 44 44 44 45 45 45 45 46
57 57 58 58 58 58 58 59 59 60 61 61 61 61 61 60 60 60 60 59 59 58 58 58 58 58 58 57 58 58 58 58 57 57 57 56 56 56 55 55 54 52 51 50 51 51 51 51 51 50 50 49 49 48 48 47 47 47 47 46 46 45 45 46 46 46 46 47 47
57 58 58 57 58 58 59 59 60 61 61 61 60 60 60 60 59 59 58 58 57 57 57 57 57 57 57 57 57 57 57 57 57 57 56 56 55 55 55 54 53 52 51 50 51 51 50 50 49 49 48 48 48 48 48 48 48 47 47 46 46 46 46 46 46 46 47 48 48
58 58 58 58 58 59 59 60 61 61 61 60 60 60 59 59 58 58 57 57 56 56 57 57 57 56 56 56 56 56 56 56 56 56 56 55 55 54 54 54 53 52 50 50 50 50 50 49 48 48 48 48 48 48 48 47 47 47 47 46 46 46 46 46 46 47 47 49 49
58 58 58 58 59 59 60 60 60 60 60 60 60 59 58 58 57 56 56 56 56 56 56 56 56 55 55 55 55 55 55 55 55 55 55 55 54 54 53 53 52 51 50 50 50 49 49 48 48 48 47 47 47 46 46 46 46 46 46 46 45 45 46 46 47 48 49 49 49
58 58 58 59 59 59 59 59 59 59 59 59 59 58 57 56 55 55 56 56 56 56 55 55 55 54 54 54 53 53 54 54 54 54 54 54 54 53 52 52 51 51 50 50 49 49 48 48 48 47 47 46 45 45 46 46 46 46 45 45 45 45 46 47 48 49 49 49 49
59 59 59 59 59 59 59 59 58 58 58 58 57 56 56 55 55 55 55 55 55 55 55 55 54 54 54 53 53 53 54 54 54 54 54 54 53 53 52 51 51 50 50 49 49 49 48 47 47 46 46 45 45 45 46 46 46 45 45 44 45 46 47 48 48 49 49 49 49
59 59 58 58 58 58 58 58 57 57 56 56 56 55 55 54 54 54 53 53 54 54 54 54 54 54 54 54 54 54 54 53 53 53 53 53 53 52 51 50 50 50 49 49 49 48 48 47 46 46 45 45 46 46 47 46 46 45 45 45 45 46 47 47 48 48 48 48 48
59 58 58 57 57 57 57 57 56 56 55 55 54 54 53 53 53 52 53 53 53 53 52 52 53 53 53 53 53 53 53 53 53 53 53 53 52 51 50 49 49 49 48 49 48 48 47 47 46 46 45 46 47 47 47 46 46 45 44 44 45 46 46 46 46 46 47 47 47
58 58 57 57 56 56 56 56 55 55 54 54 53 52 52 52 52 52 52 53 52 52 52 52 52 52 52 52 52 52 53 53 53 53 53 53 52 51 50 49 48 48 48 48 48 47 47 46 46 46 46 47 47 47 47 46 45 45 44 44 44 45 45 44 44 45 45 45 46
58 57 57 56 56 56 56 55 55 54 53 53 52 52 52 52 52 52 52 53 52 51 51 51 51 51 51 51 52 52 52 52 53 53 52 52 52 51 50 49 48 48 48 48 47 47 46 46 46 46 47 47 47 47 47 46 45 44 44 44 44 44 44 44 44 44 44 44 44
58 57 57 56 56 56 55 55 54 54 53 52 52 52 52 52 52 52 53 53 53 52 51 51 50 51 51 51 51 51 52 52 53 53 52 52 51 51 50 49 48 48 47 47 47 46 46 46 46 46 47 48 48 48 47 45 44 43 43 43 43 42 43 43 44 44 44 43 43
58 58 57 57 56 56 55 55 54 54 53 53 53 52 52 52 52 52 53 53 53 52 51 51 50 50 50 51 50 50 51 51 52 52 52 51 50 50 49 49 49 48 47 47 46 46 46 46 46 47 47 48 48 48 47 45 44 43 43 43 42 42 42 43 44 44 44 43 42
58 58 57 57 57 56 55 55 54 54 53 53 53 53 52 52 52 52 52 52 52 51 51 50 50 50 50 50 50 50 50 50 50 50 51 50 50 49 49 50 49 48 48 47 47 46 47 47 47 47 47 48 48 48 47 45 44 43 43 43 43 42 42 42 43 44 44 44 44
MSLP
1002.18 1002.34 1002.46 1002.66 1002.74 1002.86 1002.98 1003.02 1003.10 1003.22 1003.46 1003.82 1004.18 1004.66 1005.10 1005.50 1005.86 1006.22 1006.54 1006.78 1006.98 1007.22 1007.38 1007.54 1007.82 1008.18 1008.54 1008.94 1009.26 1009.54 1009.82 1010.10 1010.34 1010.66 1010.94 1011.18 1011.42 1011.70 1011.98 1012.26 1012.46 1012.70 1012.94 1013.18 1013.46 1013.70 1013.94 1014.14 1014.42 1014.62 1014.82 1014.98 1015.10 1015.26 1015.42 1015.54 1015.66 1015.82 1015.98 1016.14 1016.38 1016.54 1016.74 1016.86 1016.98 1017.18 1017.38 1017.58 1017.70
1002.06 1002.18 1002.38 1002.62 1002.74 1002.86 1002.90 1002.98 1003.14 1003.38 1003.66 1003.94 1004.30 1004.70 1005.10 1005.46 1005.78 1006.14 1006.46 1006.70 1006.98 1007.22 1007.38 1007.54 1007.86 1008.22 1008.62 1008.98 1009.34 1009.58 1009.86 1010.14 1010.42 1010.70 1010.98 1011.26 1011.54 1011.78 1012.02 1012.26 1012.46 1012.70 1012.94 1013.18 1013.46 1013.70 1013.94 1014.14 1014.38 1014.58 1014.82 1014.98 1015.10 1015.26 1015.42 1015.58 1015.70 1015.86 1015.98 1016.22 1016.46 1016.66 1016.82 1016.94 1017.10 1017.26 1017.50 1017.70 1017.86
1001.98 1002.14 1002.38 1002.62 1002.70 1002.78 1002.82 1002.90 1003.10 1003.38 1003.70 1004.10 1004.46 1004.82 1005.14 1005.46 1005.78 1006.06 1006.38 1006.70 1006.98 1007.26 1007.42 1007.66 1007.90 1008.26 1008.70 1009.06 1009.38 1009.66 1009.90 1010.14 1010.42 1010.74 1011.02 1011.30 1011.58 1011.82 1012.02 1012.26 1012.50 1012.74 1012.98 1013.22 1013.46 1013.70 1013.94 1014.14 1014.38 1014.62 1014.82 1014.98 1015.14 1015.26 1015.42 1015.62 1015.78 1015.90 1016.10 1016.34 1016.58 1016.78 1016.94 1017.14 1017.26 1017.46 1017.66 1017.82 1017.98
1001.98 1002.18 1002.42 1002.58 1002.58 1002.58 1002.62 1002.78 1003.06 1003.42 1003.82 1004.18 1004.54 1004.90 1005.26 1005.50 1005.78 1006.02 1006.34 1006.70 1007.02 1007.26 1007.54 1007.74 1007.98 1008.38 1008.78 1009.14 1009.42 1009.70 1009.98 1010.18 1010.50 1010.78 1011.10 1011.34 1011.58 1011.86 1012.06 1012.26 1012.54 1012.78 1013.02 1013.26 1013.50 1013.70 1013.94 1014.14 1014.42 1014.70 1014.90 1015.06 1015.18 1015.34 1015.54 1015.70 1015.86 1016.06 1016.30 1016.54 1016.70 1016.90 1017.06 1017.26 1017.42 1017.62 1017.82 1017.94 1018.10
1001.98 1002.14 1002.34 1002.50 1002.50 1002.54 1002.62 1002.78 1003.10 1003.46 1003.90 1004.26 1004.58 1004.94 1005.26 1005.54 1005.74 1005.98 1006.30 1006.70 1006.98 1007.30 1007.58 1007.78 1008.02 1008.42 1008.86 1009.18 1009.46 1009.70 1009.98 1010.26 1010.58 1010.86 1011.10 1011.38 1011.62 1011.86 1012.06 1012.34 1012.54 1012.82 1013.10 1013.34 1013.58 1013.78 1013.98 1014.26 1014.54 1014.82 1014.98 1015.14 1015.34 1015.46 1015.62 1015.78 1015.98 1016.26 1016.50 1016.70 1016.90 1017.06 1017.22 1017.42 1017.58 1017.78 1017.94 1018.06 1018.26
1001.94 1002.14 1002.34 1002.42 1002.46 1002.58 1002.74 1002.98 1003.22 1003.58 1003.94 1004.26 1004.54 1004.86 1005.14 1005.42 1005.66 1005.94 1006.26 1006.62 1006.98 1007.38 1007.70 1007.94 1008.14 1008.54 1008.94 1009.26 1009.58 1009.82 1010.10 1010.42 1010.66 1010.90 1011.14 1011.42 1011.66 1011.90 1012.14 1012.38 1012.62 1012.86 1013.14 1013.42 1013.62 1013.86 1014.10 1014.38 1014.66 1014.90 1015.14 1015.30 1015.46 1015.62 1015.78 1015.98 1016.14 1016.42 1016.62 1016.86 1017.02 1017.22 1017.34 1017.54 1017.70 1017.90 1018.06 1018.18 1018.34
1001.90 1002.18 1002.38 1002.42 1002.50 1002.70 1002.90 1003.14 1003.42 1003.74 1004.06 1004.38 1004.58 1004.86 1005.14 1005.38 1005.66 1005.98 1006.26 1006.62 1007.06 1007.46 1007.78 1007.98 1008.26 1008.62 1008.98 1009.26 1009.58 1009.86 1010.14 1010.42 1010.70 1010.94 1011.14 1011.42 1011.66 1011.90 1012.14 1012.42 1012.70 1012.94 1013.18 1013.46 1013.70 1013.94 1014.14 1014.46 1014.78 1015.06 1015.26 1015.42 1015.66 1015.82 1015.98 1016.14 1016.26 1016.46 1016.70 1016.90 1017.14 1017.38 1017.54 1017.70 1017.86 1018.02 1018.14 1018.26 1018.38
1001.98 1002.22 1002.42 1002.46 1002.54 1002.70 1002.94 1003.14 1003.50 1003.86 1004.18 1004.42 1004.70 1004.94 1005.14 1005.42 1005.70 1006.06 1006.42 1006.74 1007.14 1007.46 1007.70 1007.90 1008.26 1008.62 1008.98 1009.26 1009.54 1009.86 1010.14 1010.42 1010.70 1010.94 1011.22 1011.50 1011.70 1011.98 1012.18 1012.46 1012.74 1013.02 1013.26 1013.54 1013.78 1014.02 1014.26 1014.54 1014.86 1015.10 1015.30 1015.54 1015.70 1015.90 1016.10 1016.22 1016.34 1016.50 1016.70 1016.98 1017.26 1017.54 1017.74 1017.86 1018.02 1018.14 1018.22 1018.30 1018.42
1002.14 1002.30 1002.42 1002.50 1002.62 1002.78 1002.98 1003.22 1003.54 1003.86 1004.22 1004.54 1004.78 1005.02 1005.26 1005.54 1005.86 1006.14 1006.46 1006.86 1007.14 1007.34 1007.58 1007.94 1008.26 1008.62 1008.98 1009.26 1009.58 1009.86 1010.14 1010.42 1010.70 1010.98 1011.26 1011.58 1011.78 1012.02 1012.30 1012.58 1012.86 1013.14 1013.38 1013.62 1013.86 1014.10 1014.38 1014.70 1014.94 1015.14 1015.38 1015.58 1015.78 1015.98 1016.18 1016.34 1016.46 1016.62 1016.86 1017.10 1017.38 1017.66 1017.86 1018.02 1018.14 1018.18 1018.26 1018.38 1018.46
1002.22 1002.30 1002.38 1002.46 1002.66 1002.86 1003.06 1003.34 1003.70 1003.98 1004.26 1004.62 1004.94 1005.18 1005.42 1005.70 1005.98 1006.22 1006.54 1006.86 1007.06 1007.30 1007.62 1007.98 1008.34 1008.70 1009.06 1009.34 1009.62 1009.90 1010.18 1010.46 1010.78 1011.10 1011.38 1011.62 1011.86 1012.14 1012.42 1012.66 1012.90 1013.18 1013.46 1013.70 1013.98 1014.26 1014.50 1014.78 1014.98 1015.22 1015.42 1015.66 1015.86 1016.06 1016.26 1016.46 1016.58 1016.78 1016.98 1017.26 1017.54 1017.74 1017.90 1018.02 1018.14 1018.22 1018.30 1018.42 1018.54
1002.18 1002.26 1002.30 1002.42 1002.66 1002.90 1003.14 1003.50 1003.86 1004.14 1004.50 1004.82 1005.10 1005.34 1005.58 1005.86 1006.14 1006.42 1006.70 1006.86 1007.14 1007.38 1007.66 1007.98 1008.42 1008.78 1009.14 1009.42 1009.70 1009.98 1010.26 1010.54 1010.86 1011.14 1011.42 1011.70 1011.94 1012.22 1012.46 1012.70 1012.98 1013.26 1013.50 1013.82 1014.10 1014.38 1014.62 1014.86 1015.02 1015.26 1015.58 1015.78 1015.98 1016.22 1016.42 1016.62 1016.78 1016.94 1017.14 1017.38 1017.58 1017.70 1017.86 1017.98 1018.14 1018.26 1018.38 1018.54 1018.70
1002.18 1002.26 1002.34 1002.46 1002.70 1002.98 1003.26 1003.66 1004.02 1004.38 1004.70 1004.98 1005.26 1005.46 1005.70 1006.02 1006.38 1006.62 1006.82 1007.02 1007.26 1007.54 1007.82 1008.14 1008.54 1008.90 1009.22 1009.50 1009.82 1010.14 1010.42 1010.70 1010.94 1011.22 1011.50 1011.78 1012.06 1012.34 1012.62 1012.86 1013.14 1013.42 1013.66 1013.94 1014.18 1014.42 1014.66 1014.86 1015.06 1015.34 1015.62 1015.86 1016.14 1016.34 1016.54 1016.70 1016.86 1017.02 1017.22 1017.42 1017.58 1017.70 1017.86 1018.02 1018.14 1018.30 1018.50 1018.66 1018.82
1002.22 1002.26 1002.42 1002.62 1002.86 1003.14 1003.46 1003.86 1004.26 1004.54 1004.86 1005.18 1005.42 1005.66 1005.94 1006.26 1006.54 1006.70 1006.90 1007.14 1007.42 1007.70 1008.10 1008.50 1008.86 1009.14 1009.38 1009.66 1009.98 1010.26 1010.54 1010.78 1011.02 1011.30 1011.58 1011.86 1012.14 1012.46 1012.74 1013.02 1013.30 1013.58 1013.82 1014.02 1014.26 1014.46 1014.70 1014.90 1015.14 1015.38 1015.62 1015.90 1016.14 1016.42 1016.62 1016.74 1016.86 1017.02 1017.22 1017.42 1017.58 1017.74 1017.90 1018.10 1018.26 1018.42 1018.58 1018.74 1018.90
1002.26 1002.34 1002.50 1002.74 1003.06 1003.34 1003.70 1004.06 1004.42 1004.74 1005.02 1005.30 1005.58 1005.86 1006.14 1006.46 1006.70 1006.86 1007.06 1007.26 1007.54 1007.90 1008.34 1008.74 1009.10 1009.34 1009.58 1009.86 1010.10 1010.38 1010.62 1010.86 1011.14 1011.38 1011.70 1011.98 1012.26 1012.54 1012.86 1013.18 1013.42 1013.70 1013.94 1014.14 1014.38 1014.54 1014.78 1014.98 1015.26 1015.42 1015.66 1015.90 1016.18 1016.42 1016.62 1016.78 1016.90 1017.02 1017.18 1017.38 1017.58 1017.74 1017.94 1018.14 1018.30 1018.46 1018.66 1018.82 1018.94
1002.34 1002.50 1002.70 1002.98 1003.26 1003.58 1003.90 1004.26 1004.58 1004.90 1005.18 1005.42 1005.74 1005.98 1006.26 1006.58 1006.86 1007.06 1007.22 1007.46 1007.70 1008.06 1008.42 1008.82 1009.18 1009.50 1009.78 1010.02 1010.26 1010.50 1010.70 1010.94 1011.22 1011.46 1011.78 1012.10 1012.42 1012.70 1012.98 1013.26 1013.58 1013.78 1014.02 1014.26 1014.50 1014.70 1014.90 1015.10 1015.30 1015.54 1015.70 1015.98 1016.22 1016.42 1016.62 1016.78 1016.94 1017.10 1017.26 1017.38 1017.58 1017.74 1017.98 1018.18 1018.38 1018.54 1018.70 1018.86 1018.98
1002.50 1002.70 1002.94 1003.18 1003.42 1003.74 1004.06 1004.42 1004.74 1005.06 1005.34 1005.62 1005.90 1006.14 1006.42 1006.78 1007.02 1007.18 1007.34 1007.58 1007.86 1008.18 1008.54 1008.90 1009.26 1009.66 1009.98 1010.22 1010.42 1010.62 1010.82 1011.02 1011.30 1011.62 1011.90 1012.22 1012.54 1012.86 1013.14 1013.38 1013.66 1013.86 1014.10 1014.30 1014.54 1014.82 1015.06 1015.26 1015.42 1015.62 1015.82 1016.02 1016.26 1016.46 1016.66 1016.82 1016.98 1017.18 1017.34 1017.54 1017.70 1017.86 1018.06 1018.26 1018.46 1018.66 1018.78 1018.86 1018.98
1002.66 1002.90 1003.14 1003.38 1003.62 1003.90 1004.22 1004.54 1004.86 1005.18 1005.46 1005.74 1006.02 1006.26 1006.54 1006.86 1007.10 1007.30 1007.46 1007.70 1007.98 1008.30 1008.66 1009.02 1009.38 1009.70 1010.02 1010.30 1010.54 1010.70 1010.90 1011.18 1011.46 1011.74 1012.06 1012.38 1012.62 1012.94 1013.22 1013.54 1013.74 1013.98 1014.18 1014.38 1014.62 1014.90 1015.18 1015.42 1015.58 1015.78 1015.98 1016.14 1016.34 1016.54 1016.70 1016.90 1017.10 1017.30 1017.50 1017.70 1017.86 1018.02 1018.22 1018.42 1018.58 1018.74 1018.86 1018.98 1019.14
1002.86 1003.10 1003.34 1003.58 1003.82 1004.10 1004.38 1004.70 1004.98 1005.26 1005.58 1005.86 1006.14 1006.38 1006.62 1006.86 1007.10 1007.34 1007.58 1007.86 1008.10 1008.42 1008.82 1009.18 1009.50 1009.78 1010.06 1010.34 1010.58 1010.82 1011.06 1011.34 1011.62 1011.90 1012.18 1012.46 1012.74 1013.02 1013.34 1013.62 1013.86 1014.06 1014.26 1014.50 1014.74 1015.02 1015.26 1015.54 1015.74 1015.94 1016.14 1016.26 1016.46 1016.66 1016.86 1017.06 1017.26 1017.42 1017.66 1017.86 1018.06 1018.26 1018.42 1018.62 1018.74 1018.86 1018.98 1019.10 1019.26
1003.02 1003.26 1003.50 1003.74 1004.02 1004.26 1004.54 1004.82 1005.14 1005.42 1005.70 1005.94 1006.18 1006.42 1006.70 1006.86 1007.10 1007.38 1007.70 1007.98 1008.26 1008.54 1008.94 1009.26 1009.58 1009.90 1010.18 1010.42 1010.70 1010.98 1011.26 1011.54 1011.82 1012.10 1012.34 1012.58 1012.90 1013.18 1013.46 1013.74 1013.98 1014.18 1014.42 1014.66 1014.90 1015.14 1015.42 1015.62 1015.86 1016.02 1016.22 1016.42 1016.62 1016.82 1016.98 1017.18 1017.42 1017.62 1017.86 1018.10 1018.30 1018.50 1018.66 1018.82 1018.94 1019.02 1019.14 1019.26 1019.42
1003.14 1003.42 1003.70 1003.98 1004.18 1004.46 1004.70 1004.94 1005.22 1005.50 1005.78 1005.98 1006.26 1006.54 1006.78 1006.98 1007.14 1007.42 1007.78 1008.18 1008.46 1008.74 1009.06 1009.42 1009.70 1010.06 1010.34 1010.58 1010.86 1011.14 1011.46 1011.74 1011.98 1012.26 1012.50 1012.78 1013.06 1013.34 1013.62 1013.86 1014.14 1014.38 1014.62 1014.86 1015.06 1015.26 1015.54 1015.74 1015.94 1016.14 1016.30 1016.54 1016.74 1016.98 1017.14 1017.38 1017.58 1017.86 1018.10 1018.30 1018.50 1018.70 1018.86 1018.98 1019.10 1019.22 1019.30 1019.42 1019.62
1003.38 1003.62 1003.86 1004.14 1004.38 1004.62 1004.86 1005.14 1005.38 1005.62 1005.86 1006.10 1006.34 1006.62 1006.94 1007.14 1007.34 1007.58 1007.94 1008.30 1008.66 1008.98 1009.26 1009.58 1009.90 1010.22 1010.50 1010.78 1011.02 1011.34 1011.66 1011.94 1012.18 1012.42 1012.70 1012.98 1013.26 1013.50 1013.74 1014.02 1014.26 1014.54 1014.74 1014.98 1015.18 1015.42 1015.66 1015.86 1016.06 1016.26 1016.42 1016.66 1016.86 1017.06 1017.26 1017.50 1017.74 1017.98 1018.22 1018.42 1018.62 1018.86 1019.02 1019.14 1019.26 1019.42 1019.54 1019.70 1019.86
1003.62 1003.86 1004.10 1004.34 1004.54 1004.82 1005.10 1005.30 1005.58 1005.82 1006.02 1006.22 1006.46 1006.78 1007.10 1007.30 1007.58 1007.86 1008.14 1008.50 1008.86 1009.18 1009.54 1009.82 1010.14 1010.42 1010.66 1010.94 1011.22 1011.50 1011.82 1012.14 1012.38 1012.62 1012.86 1013.14 1013.42 1013.66 1013.94 1014.22 1014.46 1014.70 1014.90 1015.14 1015.38 1015.58 1015.78 1015.98 1016.18 1016.42 1016.58 1016.82 1017.02 1017.22 1017.38 1017.58 1017.82 1018.06 1018.26 1018.50 1018.70 1018.98 1019.14 1019.30 1019.46 1019.58 1019.74 1019.94 1020.10
1003.86 1004.10 1004.34 1004.58 1004.82 1005.02 1005.30 1005.58 1005.78 1005.98 1006.18 1006.42 1006.70 1006.98 1007.26 1007.54 1007.82 1008.14 1008.42 1008.74 1009.10 1009.42 1009.74 1010.06 1010.34 1010.62 1010.86 1011.14 1011.42 1011.70 1011.98 1012.26 1012.54 1012.82 1013.06 1013.34 1013.62 1013.86 1014.14 1014.42 1014.66 1014.90 1015.10 1015.26 1015.50 1015.70 1015.94 1016.14 1016.38 1016.58 1016.78 1016.98 1017.18 1017.34 1017.46 1017.66 1017.86 1018.14 1018.34 1018.54 1018.82 1019.06 1019.26 1019.46 1019.66 1019.82 1019.98 1020.14 1020.30
1004.10 1004.34 1004.58 1004.86 1005.10 1005.30 1005.54 1005.74 1005.94 1006.14 1006.34 1006.58 1006.90 1007.18 1007.42 1007.70 1008.02 1008.38 1008.70 1009.06 1009.34 1009.70 1009.98 1010.26 1010.58 1010.86 1011.14 1011.38 1011.62 1011.86 1012.14 1012.42 1012.70 1013.02 1013.30 1013.58 1013.82 1014.10 1014.34 1014.58 1014.86 1015.10 1015.26 1015.42 1015.66 1015.86 1016.06 1016.26 1016.54 1016.78 1016.94 1017.10 1017.26 1017.42 1017.58 1017.86 1018.06 1018.26 1018.42 1018.58 1018.86 1019.14 1019.42 1019.62 1019.82 1019.98 1020.14 1020.34 1020.54
1004.38 1004.62 1004.86 1005.14 1005.38 1005.58 1005.70 1005.94 1006.10 1006.26 1006.54 1006.82 1007.10 1007.38 1007.66 1007.98 1008.26 1008.62 1008.98 1009.26 1009.62 1009.94 1010.26 1010.54 1010.82 1011.10 1011.34 1011.66 1011.90 1012.14 1012.42 1012.62 1012.86 1013.14 1013.42 1013.78 1014.06 1014.26 1014.50 1014.78 1015.10 1015.30 1015.50 1015.66 1015.90 1016.06 1016.18 1016.34 1016.54 1016.74 1016.94 1017.14 1017.30 1017.54 1017.78 1018.06 1018.22 1018.34 1018.50 1018.70 1018.94 1019.18 1019.46 1019.74 1019.98 1020.14 1020.30 1020.46 1020.58
1004.62 1004.86 1005.14 1005.38 1005.58 1005.78 1005.94 1006.10 1006.26 1006.46 1006.78 1007.06 1007.34 1007.66 1007.94 1008.26 1008.54 1008.86 1009.18 1009.54 1009.86 1010.18 1010.46 1010.78 1011.06 1011.34 1011.62 1011.94 1012.18 1012.42 1012.66 1012.86 1013.06 1013.30 1013.58 1013.90 1014.22 1014.46 1014.70 1014.98 1015.26 1015.54 1015.78 1015.94 1016.14 1016.26 1016.38 1016.50 1016.54 1016.70 1016.86 1017.10 1017.34 1017.58 1017.86 1018.14 1018.38 1018.54 1018.70 1018.90 1019.14 1019.30 1019.58 1019.82 1020.06 1020.26 1020.42 1020.54 1020.66
1004.86 1005.14 1005.38 1005.58 1005.78 1005.98 1006.14 1006.26 1006.50 1006.78 1007.10 1007.38 1007.66 1007.98 1008.26 1008.54 1008.86 1009.14 1009.42 1009.78 1010.10 1010.42 1010.70 1011.02 1011.34 1011.62 1011.86 1012.14 1012.38 1012.58 1012.82 1013.06 1013.26 1013.54 1013.82 1014.06 1014.34 1014.62 1014.86 1015.10 1015.42 1015.70 1015.98 1016.18 1016.34 1016.46 1016.54 1016.66 1016.70 1016.78 1016.90 1017.10 1017.38 1017.66 1017.94 1018.22 1018.50 1018.70 1018.90 1019.14 1019.30 1019.50 1019.66 1019.82 1020.02 1020.26 1020.42 1020.54 1020.74
1005.14 1005.38 1005.58 1005.74 1005.94 1006.14 1006.30 1006.54 1006.86 1007.14 1007.42 1007.70 1007.98 1008.30 1008.58 1008.86 1009.14 1009.42 1009.70 1010.02 1010.38 1010.70 1011.02 1011.34 1011.62 1011.90 1012.14 1012.34 1012.54 1012.78 1012.98 1013.26 1013.50 1013.78 1014.06 1014.26 1014.54 1014.74 1014.98 1015.26 1015.54 1015.86 1016.14 1016.34 1016.50 1016.58 1016.70 1016.82 1016.86 1016.98 1017.10 1017.26 1017.54 1017.78 1018.02 1018.26 1018.54 1018.82 1019.02 1019.22 1019.42 1019.62 1019.78 1019.90 1020.06 1020.22 1020.42 1020.58 1020.74
1005.38 1005.54 1005.70 1005.90 1006.14 1006.38 1006.62 1006.86 1007.14 1007.46 1007.78 1008.06 1008.34 1008.66 1008.90 1009.14 1009.42 1009.70 1010.02 1010.34 1010.66 1010.98 1011.26 1011.58 1011.86 1012.14 1012.34 1012.54 1012.74 1012.98 1013.22 1013.46 1013.74 1014.02 1014.26 1014.46 1014.74 1014.98 1015.18 1015.42 1015.70 1016.06 1016.34 1016.46 1016.58 1016.70 1016.86 1016.94 1017.10 1017.22 1017.38 1017.46 1017.66 1017.86 1018.14 1018.38 1018.62 1018.86 1019.06 1019.30 1019.50 1019.70 1019.82 1019.98 1020.14 1020.26 1020.42 1020.54 1020.66
1005.54 1005.70 1005.90 1006.14 1006.42 1006.70 1006.98 1007.26 1007.50 1007.78 1008.10 1008.42 1008.70 1008.94 1009.14 1009.42 1009.70 1010.02 1010.34 1010.62 1010.94 1011.22 1011.50 1011.74 1011.98 1012.26 1012.50 1012.74 1012.94 1013.22 1013.46 1013.70 1013.98 1014.22 1014.42 1014.66 1014.86 1015.14 1015.34 1015.58 1015.86 1016.22 1016.46 1016.62 1016.70 1016.86 1016.98 1017.14 1017.26 1017.42 1017.58 1017.70 1017.78 1017.98 1018.18 1018.46 1018.66 1018.86 1019.10 1019.38 1019.58 1019.70 1019.86 1020.02 1020.18 1020.30 1020.42 1020.50 1020.58
1005.78 1005.98 1006.22 1006.46 1006.78 1007.06 1007.34 1007.62 1007.90 1008.14 1008.46 1008.74 1008.98 1009.22 1009.46 1009.70 1010.06 1010.38 1010.66 1010.94 1011.22 1011.50 1011.70 1011.94 1012.14 1012.42 1012.70 1012.94 1013.18 1013.42 1013.70 1013.98 1014.22 1014.42 1014.58 1014.82 1015.02 1015.26 1015.50 1015.74 1016.02 1016.34 1016.58 1016.74 1016.86 1016.98 1017.14 1017.30 1017.42 1017.58 1017.70 1017.86 1017.98 1018.14 1018.34 1018.58 1018.78 1018.98 1019.22 1019.46 1019.66 1019.82 1019.98 1020.14 1020.26 1020.38 1020.42 1020.50 1020.58
1006.14 1006.38 1006.58 1006.86 1007.18 1007.46 1007.74 1007.98 1008.26 1008.54 1008.82 1009.06 1009.26 1009.50 1009.78 1010.10 1010.42 1010.70 1010.98 1011.26 1011.50 1011.74 1011.98 1012.18 1012.42 1012.70 1012.98 1013.22 1013.46 1013.70 1013.98 1014.14 1014.42 1014.58 1014.78 1014.98 1015.22 1015.42 1015.70 1015.90 1016.22 1016.46 1016.70 1016.86 1016.98 1017.14 1017.26 1017.42 1017.58 1017.70 1017.86 1017.98 1018.18 1018.38 1018.58 1018.78 1018.98 1019.18 1019.42 1019.62 1019.82 1019.98 1020.14 1020.26 1020.38 1020.46 1020.50 1020.54 1020.62
1006.54 1006.74 1006.98 1007.26 1007.58 1007.86 1008.14 1008.42 1008.70 1008.94 1009.14 1009.38 1009.62 1009.86 1010.14 1010.46 1010.78 1011.06 1011.26 1011.54 1011.74 1011.98 1012.18 1012.42 1012.70 1012.94 1013.18 1013.42 1013.70 1013.94 1014.14 1014.34 1014.54 1014.78 1014.98 1015.14 1015.30 1015.54 1015.82 1016.10 1016.38 1016.62 1016.82 1016.98 1017.10 1017.22 1017.42 1017.54 1017.70 1017.86 1018.06 1018.26 1018.42 1018.66 1018.86 1019.02 1019.22 1019.46 1019.70 1019.86 1020.02 1020.14 1020.26 1020.34 1020.42 1020.46 1020.54 1020.66 1020.70
1006.86 1007.10 1007.30 1007.58 1007.90 1008.26 1008.54 1008.86 1009.10 1009.26 1009.50 1009.70 1009.98 1010.22 1010.46 1010.74 1011.02 1011.26 1011.54 1011.78 1011.98 1012.22 1012.42 1012.70 1012.94 1013.18 1013.42 1013.62 1013.82 1014.02 1014.26 1014.50 1014.70 1014.94 1015.14 1015.26 1015.46 1015.62 1015.86 1016.14 1016.46 1016.70 1016.94 1017.02 1017.18 1017.34 1017.50 1017.66 1017.86 1018.06 1018.26 1018.46 1018.70 1018.86 1019.02 1019.22 1019.42 1019.66 1019.86 1020.02 1020.18 1020.26 1020.38 1020.42 1020.54 1020.58 1020.70 1020.78 1020.86
1007.22 1007.42 1007.70 1007.98 1008.30 1008.62 1008.90 1009.18 1009.42 1009.62 1009.82 1010.06 1010.26 1010.54 1010.78 1011.02 1011.26 1011.54 1011.78 1012.02 1012.26 1012.50 1012.78 1013.02 1013.22 1013.42 1013.66 1013.86 1014.02 1014.18 1014.38 1014.62 1014.86 1015.06 1015.22 1015.42 1015.58 1015.74 1015.98 1016.22 1016.54 1016.82 1016.98 1017.14 1017.30 1017.42 1017.58 1017.82 1017.98 1018.18 1018.42 1018.58 1018.82 1018.98 1019.18 1019.34 1019.58 1019.82 1019.98 1020.14 1020.26 1020.38 1020.46 1020.58 1020.70 1020.78 1020.86 1020.98 1021.06
1007.58 1007.82 1008.10 1008.34 1008.66 1008.94 1009.22 1009.46 1009.70 1009.90 1010.10 1010.30 1010.54 1010.82 1011.10 1011.30 1011.58 1011.86 1012.10 1012.26 1012.50 1012.78 1013.02 1013.26 1013.46 1013.70 1013.86 1014.06 1014.26 1014.42 1014.54 1014.70 1014.90 1015.14 1015.30 1015.46 1015.62 1015.86 1016.10 1016.34 1016.66 1016.90 1017.10 1017.22 1017.42 1017.58 1017.74 1017.94 1018.14 1018.30 1018.50 1018.70 1018.86 1019.06 1019.26 1019.42 1019.70 1019.90 1020.10 1020.22 1020.34 1020.50 1020.66 1020.78 1020.86 1020.98 1021.06 1021.14 1021.26
1008.02 1008.22 1008.42 1008.70 1008.94 1009.22 1009.46 1009.70 1009.94 1010.14 1010.34 1010.54 1010.82 1011.06 1011.34 1011.62 1011.94 1012.18 1012.38 1012.54 1012.74 1012.98 1013.22 1013.42 1013.62 1013.82 1013.98 1014.18 1014.38 1014.58 1014.74 1014.86 1014.98 1015.18 1015.38 1015.54 1015.70 1015.90 1016.18 1016.46 1016.74 1016.98 1017.18 1017.34 1017.50 1017.66 1017.86 1018.06 1018.26 1018.42 1018.54 1018.70 1018.86 1019.06 1019.26 1019.50 1019.70 1019.98 1020.18 1020.34 1020.50 1020.70 1020.86 1020.98 1021.14 1021.18 1021.26 1021.30 1021.42
1008.42 1008.58 1008.78 1008.98 1009.18 1009.42 1009.70 1009.94 1010.18 1010.42 1010.62 1010.86 1011.14 1011.38 1011.66 1011.90 1012.18 1012.46 1012.66 1012.78 1012.94 1013.14 1013.34 1013.58 1013.78 1013.98 1014.18 1014.34 1014.54 1014.70 1014.90 1015.02 1015.14 1015.26 1015.42 1015.66 1015.82 1015.98 1016.22 1016.54 1016.82 1017.10 1017.30 1017.46 1017.62 1017.78 1017.98 1018.18 1018.34 1018.46 1018.54 1018.66 1018.86 1019.06 1019.26 1019.54 1019.74 1019.98 1020.22 1020.42 1020.62 1020.86 1020.98 1021.14 1021.26 1021.38 1021.42 1021.50 1021.58
1008.78 1008.94 1009.10 1009.26 1009.42 1009.70 1009.90 1010.14 1010.42 1010.62 1010.86 1011.14 1011.42 1011.70 1011.94 1012.18 1012.42 1012.70 1012.86 1012.98 1013.14 1013.26 1013.46 1013.70 1013.94 1014.14 1014.38 1014.50 1014.66 1014.86 1015.02 1015.18 1015.26 1015.38 1015.54 1015.74 1015.94 1016.14 1016.30 1016.54 1016.86 1017.14 1017.42 1017.58 1017.78 1017.94 1018.14 1018.30 1018.46 1018.54 1018.62 1018.70 1018.86 1019.06 1019.26 1019.50 1019.78 1020.02 1020.26 1020.50 1020.70 1020.94 1021.14 1021.26 1021.34 1021.42 1021.58 1021.70 1021.82
1009.02 1009.22 1009.38 1009.54 1009.70 1009.94 1010.14 1010.42 1010.70 1010.94 1011.14 1011.38 1011.62 1011.90 1012.18 1012.42 1012.66 1012.86 1013.02 1013.18 1013.34 1013.50 1013.66 1013.86 1014.06 1014.26 1014.50 1014.62 1014.82 1014.98 1015.14 1015.34 1015.46 1015.58 1015.70 1015.94 1016.14 1016.26 1016.46 1016.66 1016.94 1017.26 1017.54 1017.74 1017.94 1018.10 1018.26 1018.42 1018.54 1018.66 1018.70 1018.82 1018.94 1019.10 1019.26 1019.54 1019.78 1019.98 1020.26 1020.46 1020.70 1020.90 1021.10 1021.26 1021.38 1021.50 1021.66 1021.82 1021.98
1009.26 1009.42 1009.62 1009.82 1010.02 1010.22 1010.42 1010.66 1010.94 1011.18 1011.38 1011.58 1011.86 1012.14 1012.42 1012.62 1012.82 1012.98 1013.18 1013.38 1013.54 1013.70 1013.86 1014.06 1014.26 1014.42 1014.62 1014.78 1014.94 1015.10 1015.30 1015.50 1015.70 1015.86 1015.98 1016.14 1016.34 1016.50 1016.66 1016.82 1017.06 1017.34 1017.62 1017.90 1018.10 1018.22 1018.38 1018.50 1018.62 1018.70 1018.78 1018.86 1018.98 1019.14 1019.30 1019.54 1019.74 1019.98 1020.14 1020.38 1020.58 1020.82 1020.98 1021.18 1021.34 1021.46 1021.62 1021.82 1021.98
Wind_Speed
12 11 9 7 7 7 7 8 9 9 10 11 11 11 11 11 11 10 10 9 9 8 8 9 10 11 13 15 15 15 15 16 16 16 15 15 15 16 17 17 16 16 15 15 15 14 12 12 10 8 7 7 7 7 7 6 7 8 7 7 6 6 7 8 7 7 7 6 4
13 12 9 7 7 7 8 8 9 9 10 10 10 11 11 10 10 10 10 10 9 8 8 8 11 13 15 16 16 15 16 16 17 16 16 16 17 17 17 16 16 16 16 16 15 13 11 11 10 8 6 6 7 7 7 6 7 7 8 8 6 6 6 6 6 6 6 5 4
12 11 9 8 9 9 9 9 10 11 12 11 10 10 10 10 10 10 10 10 10 9 8 8 11 14 16 17 15 15 15 16 17 16 16 16 17 17 17 16 16 16 16 15 14 12 11 11 9 7 6 6 7 7 7 7 7 7 7 7 5 5 4 4 5 4 4 3 4
13 11 10 9 12 12 12 10 13 14 13 11 11 11 10 9 9 9 10 11 11 10 9 10 12 14 15 16 16 15 15 16 17 17 16 16 17 17 17 16 16 16 16 15 14 13 12 11 8 6 6 7 7 7 6 6 7 6 6 5 5 4 4 4 4 4 3 3 4
13 11 9 10 13 14 14 13 16 15 13 11 11 10 10 9 9 10 11 11 10 10 11 13 13 13 14 15 17 17 17 17 16 16 15 16 17 17 17 17 16 16 15 14 14 13 12 11 7 6 6 7 6 6 6 7 7 6 5 4 4 4 4 4 3 3 3 3 3
12 10 9 10 14 15 15 15 18 17 14 12 12 12 11 9 10 10 11 11 12 13 15 16 15 15 15 16 17 17 17 17 15 15 15 16 16 16 17 17 16 15 14 14 14 13 12 10 7 6 6 6 6 6 7 8 7 7 6 5 4 4 4 4 4 3 3 4 4
11 10 11 12 15 16 16 17 17 16 14 13 14 14 13 12 12 13 13 13 13 14 15 15 15 16 16 17 17 16 16 15 15 16 16 15 16 16 17 16 16 15 14 14 14 13 12 10 7 6 6 5 5 6 8 7 7 7 6 6 4 4 4 4 4 4 4 5 6
10 11 12 14 16 17 18 18 17 15 14 12 14 15 16 15 16 16 15 14 14 14 14 14 16 17 17 17 17 16 16 16 16 16 16 15 16 17 17 16 16 15 15 14 13 12 11 9 7 6 6 5 5 6 7 8 8 8 7 7 5 4 4 4 4 4 5 6 6
9 11 13 15 16 17 18 18 17 16 14 13 15 16 17 17 18 17 16 14 14 14 15 15 17 19 18 18 17 17 16 16 16 16 15 15 16 17 16 15 15 15 14 13 13 13 11 8 7 6 6 6 6 6 7 8 9 9 8 7 6 5 5 4 5 5 6 6 6
10 12 14 16 16 17 17 17 17 16 16 16 17 17 17 17 17 16 14 13 13 14 15 16 18 18 18 18 17 16 16 15 15 16 16 16 16 16 16 14 15 15 14 13 12 12 11 8 7 7 7 6 7 8 9 9 9 9 8 6 6 7 7 6 6 6 6 6 6
12 13 15 16 17 17 17 17 16 16 16 16 17 17 17 17 16 15 13 12 14 15 16 17 18 18 17 17 16 16 15 14 14 15 16 16 16 16 15 14 15 14 14 13 11 10 9 8 9 9 9 8 9 9 9 9 9 9 8 7 8 8 8 8 7 6 6 6 7
13 14 16 16 17 17 17 16 15 15 16 17 17 17 17 16 16 15 15 15 16 16 17 17 17 17 16 15 15 15 15 15 15 16 16 17 16 16 15 14 14 14 14 13 11 9 8 9 10 11 11 10 8 8 9 10 10 10 9 9 9 9 9 8 7 6 6 6 7
14 15 16 17 18 18 17 16 15 15 16 17 17 16 16 15 16 16 16 17 17 16 16 16 16 16 15 14 14 14 14 15 16 16 16 16 16 16 15 14 14 14 13 12 11 9 9 10 11 12 12 11 9 8 9 10 10 10 10 10 10 9 9 9 8 7 7 7 7
15 17 17 18 18 18 17 16 15 15 16 17 16 16 15 15 15 15 16 16 17 17 16 16 15 14 14 15 15 15 15 15 16 16 16 16 16 15 15 14 14 14 12 11 10 10 11 11 12 12 12 12 10 10 10 10 10 10 10 11 10 10 9 9 8 8 8 8 8
17 18 18 19 18 17 16 16 14 14 15 16 16 15 15 14 14 15 15 17 18 18 16 15 14 14 14 15 15 16 16 16 17 17 17 16 16 15 15 14 14 13 12 11 11 11 11 12 12 12 12 12 12 11 10 10 9 9 10 10 10 10 9 9 9 9 8 8 8
18 18 19 18 18 17 16 15 13 14 15 15 15 15 14 13 13 14 16 18 17 16 16 15 14 14 14 15 16 16 16 16 17 17 16 16 16 15 15 15 14 13 12 12 11 11 11 11 11 11 11 12 12 11 11 10 9 9 9 9 9 9 9 9 9 8 8 8 8
19 19 18 18 18 18 16 15 13 14 14 15 16 15 14 13 13 14 16 17 16 16 16 16 15 14 14 14 15 15 15 15 15 15 15 15 16 15 15 14 13 13 13 13 12 12 11 10 10 10 11 11 11 11 11 10 9 9 9 9 9 9 9 9 8 8 8 8 8
18 18 18 18 18 18 18 17 16 15 16 16 16 15 14 14 14 15 16 17 17 17 17 17 15 15 15 15 14 13 13 14 14 14 15 15 15 15 15 14 13 13 13 13 12 12 12 11 11 10 10 10 10 10 10 10 9 9 9 9 9 8 8 8 8 7 7 8 8
18 18 18 18 18 18 18 18 17 17 16 16 16 15 15 15 16 17 17 17 17 18 18 17 16 15 15 16 14 13 13 13 14 15 15 15 15 15 14 14 13 12 12 12 12 12 12 12 11 11 11 10 10 10 10 10 10 10 10 9 9 8 8 8 7 7 7 7 8
18 18 18 18 18 18 18 18 17 17 16 16 16 16 16 17 18 18 18 18 17 18 17 17 16 16 15 16 15 14 13 12 14 15 15 14 14 14 14 14 13 12 12 12 12 12 12 12 12 12 11 11 11 11 11 10 10 10 10 9 9 9 8 8 7 7 7 8 7
18 18 18 18 18 17 17 17 17 17 17 17 17 17 17 17 18 18 18 18 18 17 17 17 16 16 16 16 16 15 13 12 13 14 14 14 14 14 14 13 13 12 11 11 12 12 12 12 12 12 11 11 11 11 11 11 11 10 10 9 9 9 9 8 8 8 8 8 7
17 17 17 17 17 17 17 16 16 17 17 18 18 17 17 17 18 18 18 18 18 17 17 17 17 16 16 16 16 15 14 12 13 13 13 13 13 13 13 12 12 12 11 11 12 12 12 12 12 11 11 11 11 11 11 11 11 11 10 10 10 10 9 8 8 8 8 8 7
16 16 16 16 16 17 17 16 17 17 18 18 18 18 17 18 18 18 18 17 17 17 17 16 16 16 16 16 15 15 15 14 14 13 13 13 13 13 12 12 12 11 11 11 11 11 11 11 11 11 10 10 11 11 11 11 11 11 11 11 11 10 9 9 8 8 8 7 7
16 15 15 14 16 17 17 17 17 17 18 18 18 18 18 18 18 18 18 17 17 17 16 14 14 15 16 15 15 15 15 15 15 14 14 13 13 12 12 11 10 10 9 9 9 10 10 10 10 10 10 10 10 10 10 10 10 10 11 11 11 11 10 9 9 8 8 8 7
16 16 16 15 16 16 17 17 17 18 18 18 18 18 19 18 18 18 18 18 17 17 16 16 15 15 15 15 15 15 15 15 16 15 15 14 13 12 11 10 9 8 7 8 10 12 12 11 10 9 9 10 10 10 10 10 10 10 10 11 11 10 10 10 9 8 8 8 7
16 17 17 17 17 17 17 17 18 18 18 18 18 18 18 18 18 18 18 18 17 17 17 16 15 14 13 14 14 14 14 14 14 15 14 14 13 12 10 9 8 6 6 8 12 13 13 13 12 11 10 9 10 10 9 9 9 10 10 10 10 10 10 10 9 9 8 8 8
16 17 17 17 17 17 17 17 18 18 18 18 19 18 18 17 17 17 18 18 17 17 16 15 14 13 13 13 14 14 14 13 13 14 14 13 13 12 10 8 7 7 7 11 13 14 14 13 13 12 11 10 10 9 9 9 9 10 10 9 9 9 9 10 10 10 9 9 9
16 17 17 17 17 17 18 18 18 18 19 18 18 18 17 17 18 18 17 17 17 15 14 13 12 11 10 11 13 14 14 13 13 12 12 12 12 11 10 8 8 8 10 13 14 15 14 14 13 13 12 11 10 10 10 10 10 9 9 9 9 9 9 9 10 10 10 10 10
17 17 17 18 18 18 18 18 18 19 18 18 18 18 17 18 18 18 17 17 16 14 12 11 10 9 9 10 12 13 13 13 12 12 11 12 11 11 10 10 10 11 13 15 15 15 15 14 14 14 13 12 9 8 8 8 8 8 8 7 8 8 8 9 9 9 9 10 10
17 17 18 18 18 18 18 18 18 18 18 17 17 17 18 17 17 17 16 16 15 13 11 10 10 10 11 12 12 12 12 12 11 11 12 12 11 11 10 10 11 12 14 16 15 15 15 15 15 15 14 13 10 9 8 8 8 8 7 7 8 8 9 9 9 9 9 9 10
17 17 18 18 18 18 18 18 18 17 17 16 17 17 17 17 17 16 15 14 13 12 12 12 13 13 13 12 12 12 12 11 11 11 12 12 12 12 12 12 12 13 14 16 16 16 16 16 16 15 15 13 10 8 7 8 7 7 7 7 8 9 9 9 9 9 9 10 9
17 17 18 18 18 18 17 17 17 17 17 17 17 17 17 16 15 14 14 13 13 13 13 14 14 14 14 13 12 12 12 12 11 11 11 12 12 12 13 13 13 13 15 17 17 17 17 17 16 16 15 13 11 9 8 8 8 8 8 8 9 9 9 8 8 9 10 10 9
17 17 18 18 18 18 17 17 16 16 16 17 17 16 16 15 14 13 13 13 13 14 14 14 15 14 14 13 13 13 12 12 12 12 12 12 13 13 13 12 12 13 15 17 17 17 17 17 17 16 15 14 11 10 9 9 8 8 8 8 8 9 9 9 8 8 9 9 8
17 17 18 18 18 17 16 16 16 16 16 16 16 16 15 15 14 13 13 12 12 12 13 13 13 13 13 13 13 13 12 12 12 12 13 13 13 13 13 11 10 12 15 17 17 17 17 17 17 17 16 14 11 9 9 10 8 8 8 8 8 8 8 8 8 8 8 8 7
17 17 17 17 17 16 16 16 15 15 15 16 15 15 15 14 14 13 12 12 12 12 12 12 12 12 12 12 12 13 13 13 13 13 13 13 13 13 13 11 11 13 16 17 18 18 18 18 18 17 15 13 10 9 10 10 10 9 10 9 9 9 8 8 7 7 7 7 7
16 17 17 17 16 16 16 15 15 15 15 15 15 15 14 13 12 12 12 12 12 12 12 12 11 12 12 12 11 12 12 13 13 13 13 13 13 13 13 13 13 15 17 17 18 18 18 18 18 17 15 11 9 9 9 9 9 10 10 10 9 9 8 8 7 7 7 7 7
15 16 16 16 16 16 16 15 15 15 15 15 15 14 14 13 12 11 11 12 12 12 12 12 12 12 12 12 11 11 12 12 13 13 13 13 13 13 13 13 13 14 16 17 18 18 18 18 17 16 13 10 9 9 9 8 8 9 9 9 9 9 8 7 6 6 6 6 7
15 15 15 16 16 16 15 15 15 15 15 15 14 14 13 13 12 11 11 11 12 12 12 12 12 12 12 12 12 12 12 12 12 13 13 13 13 13 14 14 13 13 14 16 17 18 18 18 17 14 12 9 9 9 8 8 8 8 9 8 8 8 7 6 5 5 6 7 7
14 15 15 15 16 16 16 15 15 15 15 15 14 13 13 12 11 10 10 10 11 12 12 12 12 12 12 12 12 12 12 12 12 12 12 12 12 13 13 14 13 13 13 16 17 17 17 17 16 14 12 10 9 8 8 8 9 9 9 8 7 7 6 5 5 5 6 7 7
14 14 15 15 15 15 15 16 15 15 14 14 14 14 13 12 11 10 10 10 11 11 12 12 12 12 12 11 12 12 12 11 11 11 11 12 12 12 13 13 13 13 14 15 17 17 17 16 15 14 12 9 8 7 7 8 9 9 9 8 7 7 6 6 5 6 6 7 7
13 14 14 14 15 15 15 16 15 14 14 14 14 13 12 11 11 10 10 10 10 10 10 11 12 12 11 11 11 11 12 11 10 10 11 11 11 11 11 12 12 13 13 15 16 16 16 16 15 13 11 8 8 7 7 7 8 9 9 9 8 7 6 6 6 6 6 7 7
Wind_Direction
165 164 164 169 177 170 160 154 147 142 139 139 139 140 141 142 142 142 142 141 138 137 137 137 135 137 142 147 150 151 152 152 153 152 150 150 150 151 152 153 153 152 152 152 154 155 156 157 156 157 160 164 165 164 162 161 164 165 165 163 161 163 168 173 173 171 168 162 151
165 164 165 171 174 166 155 147 141 138 138 138 137 139 140 141 141 140 139 139 136 134 133 133 133 137 142 148 151 152 152 152 152 151 150 150 151 151 152 152 152 152 152 153 155 156 158 158 157 157 159 162 163 161 159 159 161 160 157 154 153 157 163 167 164 160 155 149 137
161 162 168 179 174 165 153 144 140 138 137 135 136 137 138 138 137 137 135 135 132 130 129 130 134 139 144 149 151 152 152 152 151 150 150 151 151 152 152 151 152 152 153 154 156 158 158 158 156 154 155 159 160 157 153 154 154 151 148 146 144 145 147 146 143 140 138 135 130
159 163 171 185 173 162 151 142 140 138 136 134 134 134 135 135 133 132 130 129 129 128 130 133 136 140 145 150 152 152 151 151 150 150 150 150 151 152 151 151 152 153 154 155 157 157 157 155 150 147 148 150 149 147 146 147 144 140 135 135 133 133 133 131 131 130 127 122 118
160 165 175 182 167 157 148 142 141 139 136 133 134 134 134 132 130 128 129 129 130 132 135 138 139 143 147 151 151 151 150 150 149 150 150 151 151 151 152 152 153 153 154 156 157 157 154 150 141 139 141 143 142 141 140 140 136 131 126 122 123 126 128 127 127 126 122 118 113
159 168 177 174 160 152 146 143 141 139 137 135 135 135 134 131 130 131 131 131 132 134 137 140 141 144 148 151 151 151 150 150 150 150 151 151 151 152 152 153 153 153 154 156 156 154 151 145 137 135 138 137 135 135 136 137 133 129 125 123 122 123 125 127 125 123 123 125 123
159 171 176 167 154 148 143 142 140 138 137 136 135 134 132 131 130 130 131 130 132 136 140 143 144 146 149 152 151 151 150 151 151 151 151 151 151 152 152 153 152 153 154 155 155 153 150 144 139 136 134 131 131 135 137 137 134 131 128 126 122 118 116 118 117 122 128 134 133
165 174 173 159 148 143 140 139 137 136 136 135 134 132 130 128 129 129 129 130 135 140 143 143 145 147 149 151 151 150 150 151 151 151 151 150 151 151 152 151 151 152 153 154 154 151 147 141 138 135 133 130 130 134 138 138 136 133 129 125 119 115 113 116 120 129 136 139 138
172 173 164 150 142 137 135 134 134 133 132 131 130 128 127 127 128 128 129 132 137 140 141 140 144 147 149 150 150 150 151 151 151 151 150 151 151 151 151 150 151 151 151 152 150 147 142 135 135 135 135 133 134 136 137 137 135 131 126 121 120 120 123 126 133 137 138 139 136
172 165 154 141 136 132 129 128 128 128 127 125 125 125 125 125 126 128 130 133 135 135 136 138 143 146 148 150 149 150 150 151 150 150 151 151 152 151 151 150 150 150 149 149 145 141 137 133 134 134 133 132 133 134 134 134 131 128 124 121 125 129 132 135 137 137 136 133 131
166 155 144 134 130 127 124 123 123 123 123 122 122 123 123 123 124 126 128 128 128 130 133 137 142 145 148 149 149 149 150 150 150 150 151 151 151 150 150 149 149 147 146 144 142 139 137 135 135 133 131 130 130 132 133 133 130 128 127 128 133 135 137 138 137 135 133 130 127
154 143 133 127 125 123 121 120 121 121 121 122 122 122 122 122 124 125 125 124 125 128 132 136 142 145 147 148 149 149 149 149 150 150 150 150 149 148 147 146 145 144 143 142 142 140 138 137 135 134 133 131 131 133 136 137 135 133 133 135 138 139 139 139 138 135 132 131 128
141 132 126 122 121 120 119 118 119 121 121 122 122 121 121 122 124 125 124 124 125 128 132 138 143 146 147 148 148 148 148 149 150 150 149 148 146 145 144 143 142 142 142 142 142 140 138 137 137 136 136 136 137 139 142 144 141 140 140 141 142 141 140 140 139 136 134 134 132
130 125 121 119 119 118 118 118 120 121 122 122 122 121 121 122 124 124 125 125 128 131 135 141 145 146 148 148 148 148 148 148 149 148 147 145 144 143 142 142 142 142 142 141 140 139 138 139 140 140 140 140 140 143 146 147 145 144 144 144 145 143 141 140 139 138 137 138 134
123 121 119 118 118 118 118 119 121 122 122 122 122 122 122 122 124 125 126 128 131 135 138 142 144 145 146 147 147 147 147 148 148 147 145 143 142 142 142 142 143 142 141 139 137 137 137 140 142 142 141 140 142 144 147 148 145 145 145 145 144 143 141 140 140 140 140 139 134
121 119 118 118 119 119 120 121 122 122 123 123 123 122 122 123 125 126 127 130 132 136 139 141 142 143 145 146 146 146 146 146 145 144 143 142 142 142 142 143 142 141 139 137 135 135 136 139 140 141 140 140 142 144 145 145 142 141 141 141 140 139 139 139 140 140 140 138 132
120 119 119 119 120 121 122 122 123 124 124 124 124 124 123 124 125 127 129 131 133 136 139 140 141 142 143 144 145 145 144 144 143 143 143 142 143 142 142 141 140 139 137 136 134 133 134 136 137 138 138 138 140 141 141 139 136 135 134 132 132 132 133 135 136 137 137 133 129
120 120 120 120 121 122 123 123 124 125 125 125 124 124 124 125 127 128 130 133 134 136 138 139 139 141 142 143 143 142 141 141 141 142 142 142 141 140 139 137 137 136 135 134 133 132 133 134 135 136 136 136 136 136 135 133 130 128 126 124 123 124 125 127 129 131 130 128 126
120 120 120 121 122 122 123 124 124 125 125 125 124 123 124 126 128 130 131 133 134 135 136 136 137 138 139 140 139 138 138 139 140 140 140 139 138 137 135 134 133 132 132 131 131 131 132 134 135 136 135 133 132 131 129 127 124 122 119 117 117 117 119 119 121 122 123 122 123
119 120 121 122 122 122 123 123 123 124 124 123 122 122 124 128 130 131 131 132 132 132 133 133 134 135 136 136 135 134 135 136 137 137 136 135 135 134 134 132 130 129 129 129 130 132 133 135 135 135 134 132 130 128 125 122 120 117 116 115 115 115 114 114 114 115 116 117 119
119 120 121 122 122 122 122 122 122 122 122 121 120 122 124 127 128 128 128 128 128 129 129 130 131 132 133 133 133 133 133 133 135 134 133 132 132 132 132 130 129 128 128 130 132 133 135 136 135 134 133 131 129 127 125 123 121 120 118 117 115 113 111 110 109 109 109 111 113
118 119 120 120 120 120 120 120 121 121 120 120 120 121 123 125 124 123 123 124 124 125 126 127 129 131 132 132 132 132 131 131 131 131 130 130 130 129 128 127 127 127 128 130 132 134 134 134 132 131 130 128 128 128 128 127 125 123 121 117 115 112 109 107 105 104 104 105 105
116 117 117 117 118 118 118 119 120 119 119 118 118 120 121 121 120 120 120 121 122 123 124 125 127 129 130 131 131 130 130 128 128 126 125 125 124 125 125 124 125 126 128 131 133 132 131 129 127 126 127 127 129 130 129 128 127 125 123 120 116 113 110 106 105 104 103 102 100
114 115 115 115 117 117 118 119 118 117 116 116 117 119 119 119 118 119 119 120 121 122 124 124 126 127 128 128 128 128 128 127 125 124 122 122 122 123 124 123 124 127 130 133 135 134 133 129 127 127 128 129 129 128 126 124 125 125 125 123 119 116 112 108 106 105 104 103 101
112 114 115 115 117 118 117 117 116 115 114 114 116 118 118 119 119 120 120 120 121 122 123 124 124 125 126 126 126 126 126 125 125 124 123 122 123 123 124 124 125 125 128 131 134 135 135 134 135 135 135 132 128 125 122 122 124 124 123 122 120 118 115 111 108 107 107 108 107
112 114 115 116 117 116 115 114 113 112 112 114 116 118 119 119 120 120 121 121 122 123 123 123 123 123 124 125 125 125 124 124 124 125 125 126 126 126 126 125 124 122 124 131 134 135 136 136 138 138 136 132 129 125 123 121 121 120 119 118 119 119 119 118 117 115 114 112 111
112 114 116 116 115 114 113 111 110 111 113 116 117 118 119 120 120 120 120 121 121 121 121 120 121 121 122 124 125 125 124 124 124 125 126 128 129 129 128 125 124 123 126 133 135 135 135 136 135 134 131 128 126 125 124 123 121 119 118 118 120 122 124 124 124 123 121 119 117
113 114 114 113 112 111 110 109 110 113 115 118 118 119 119 119 119 119 120 120 120 120 119 118 120 121 121 122 124 125 124 124 125 126 126 128 129 128 127 125 124 126 130 135 136 135 134 132 129 126 124 123 122 122 123 123 124 124 123 123 125 127 128 127 128 128 128 127 126
111 111 110 109 108 108 109 111 113 116 117 118 118 118 118 118 119 119 120 120 120 120 120 120 121 121 121 122 123 123 123 123 124 125 126 127 127 125 124 123 123 127 132 136 136 134 131 127 123 120 119 119 120 122 124 125 127 128 128 129 132 133 132 131 131 133 133 134 133
107 107 106 106 107 109 111 114 116 117 118 118 118 118 118 118 119 120 121 121 121 122 122 124 123 123 124 124 123 123 122 123 125 127 128 128 125 123 122 123 124 129 134 137 134 131 128 124 121 119 118 117 118 119 123 126 128 129 130 131 134 134 133 133 134 136 138 138 136
104 105 105 107 108 111 113 115 116 118 119 119 120 119 119 119 120 120 121 121 121 121 122 123 124 124 124 124 123 123 123 125 126 128 129 128 126 124 123 123 125 129 133 135 132 128 126 123 122 120 118 116 115 115 118 121 123 125 128 130 132 133 133 134 137 141 142 140 138
104 106 107 109 111 112 114 115 117 118 120 121 120 120 119 118 118 119 119 120 121 122 123 124 124 124 123 123 122 124 125 127 129 130 129 128 127 125 124 123 127 131 133 134 130 128 126 124 122 120 117 113 110 109 111 114 115 118 120 124 128 131 135 137 141 144 144 141 139
107 108 109 111 112 113 114 115 117 119 120 120 119 118 117 116 116 117 119 120 122 124 125 126 126 126 125 125 125 126 127 128 129 129 129 128 127 125 124 123 127 131 133 133 130 128 127 124 122 119 115 111 109 110 112 113 114 116 119 123 128 132 136 140 142 143 142 139 137
109 110 110 111 112 113 114 116 118 119 119 118 117 117 117 118 118 119 120 121 122 123 124 125 125 126 127 127 128 128 129 128 129 129 129 129 127 126 125 125 128 133 135 134 131 129 128 125 122 119 116 113 113 115 118 119 119 121 124 126 130 134 137 139 139 138 136 134 132
110 111 111 112 113 114 116 117 118 118 118 118 117 118 118 117 118 118 119 120 120 120 120 121 122 123 124 125 127 128 129 129 129 130 130 129 127 126 125 125 129 134 136 135 133 131 129 127 125 122 120 118 119 121 123 123 123 125 127 129 131 132 132 131 129 127 127 125 125
111 113 114 115 116 117 118 118 118 118 118 118 117 116 115 114 114 115 117 119 119 119 119 120 121 122 124 125 126 128 129 130 131 130 130 129 127 126 125 126 131 136 138 137 135 133 132 130 128 127 126 125 125 126 126 125 125 126 128 128 128 127 124 120 117 117 118 120 124
112 114 116 117 118 118 119 119 119 118 118 117 116 115 115 114 114 116 118 121 121 121 122 123 124 125 126 127 127 128 129 130 130 130 130 129 128 127 127 129 133 138 140 139 137 136 134 133 133 133 132 130 130 130 128 126 126 127 127 126 125 122 119 114 112 113 116 120 125
113 115 117 118 119 119 119 120 119 119 118 117 116 116 116 117 118 120 123 124 124 125 125 125 125 125 125 126 125 126 127 128 130 130 130 129 129 129 130 132 135 139 140 141 139 138 137 138 138 138 137 134 133 132 131 129 129 129 128 127 124 122 120 117 116 116 118 121 125
114 116 117 118 119 120 120 120 120 119 119 118 117 118 119 120 122 124 125 126 126 126 126 125 124 124 124 124 124 124 125 126 128 128 129 129 130 131 132 134 137 139 141 142 141 141 141 141 142 142 140 135 135 133 132 131 131 130 130 128 126 124 123 123 123 122 122 122 126
115 117 118 119 120 121 121 121 121 120 120 120 120 121 121 122 123 124 124 123 123 123 122 122 122 123 123 123 122 123 123 123 124 126 127 128 129 131 132 134 136 139 141 143 144 144 144 145 145 144 142 136 135 134 132 133 133 134 134 134 133 132 130 130 129 128 128 130 133
116 118 118 119 120 121 122 122 122 121 121 121 121 121 122 123 123 123 122 121 121 120 119 119 121 122 122 121 121 122 122 122 122 123 125 127 128 130 132 134 136 139 142 145 147 147 147 148 147 146 144 138 137 136 136 137 137 139 140 140 140 139 137 136 135 135 136 139 142